Weather History for PHBK - February, 2014

Change the Weather History Date:

Friday, February 28, 2014

  Actual Average Record
Temperature  
Mean Temperature 76 °F -  
Max Temperature 81 °F 81 °F 87 °F (1951)
Min Temperature 70 °F 60 °F 54 °F (1958)
Cooling Degree Days 11    
Growing Degree Days 26 (Base 50)    
Moisture  
Dew Point 69 °F    
Average Humidity 81    
Maximum Humidity 94    
Minimum Humidity 71    
Precipitation  
Precipitation 0.00 in - - ()
Sea Level Pressure  
Sea Level Pressure 29.90 in    
Wind  
Wind Speed 10 mph (WSW)    
Max Wind Speed 15 mph    
Max Gust Speed 25 mph    
Visibility 9 miles    
Events Rain    
Averages and records for this station are not official NWS values.
T = Trace of Precipitation, MM = Missing Value Source: NWS Daily Summary

Daily Weather History Graph

Daily Weather History Graph

Search for Another Location

Airport or City:

Trip Planner

Search our weather history database for the weather conditions in past years. The results will help you decide how hot, cold, wet, or windy it might be!

Date:

Astronomy

Feb. 28, 2014 Rise Set
Actual Time 7:00 AM HST 6:42 PM HST
Civil Twilight 6:38 AM HST 7:05 PM HST
Nautical Twilight 6:12 AM HST 7:31 PM HST
Astronomical Twilight 5:46 AM HST 7:57 PM HST
Moon 6:23 AM HST (2/28) 6:29 PM HST (2/28)
Length of Visible Light 12h 26m
Length of Day
11h 42m
Waning Crescent, 0% of the Moon is Illuminated
Feb 28
Waning Crescent
Feb 28
New
Mar 8
First Quarter
Mar 16
Full
Mar 23
Last Quarter

Hourly Weather History & Observations

Time (HST) Temp. Heat Index Dew Point Humidity Pressure Visibility Wind Dir Wind Speed Gust Speed Precip Events Conditions
12:56 AM - - - N/A% 29.93 in - North - - N/A   Unknown
1:56 AM - - - N/A% 29.91 in - North - - N/A   Unknown
2:56 AM - - - N/A% 29.90 in - North - - N/A   Unknown
3:56 AM - - - N/A% 29.89 in - North - - N/A   Unknown
4:56 AM - - - N/A% 29.88 in - North - - N/A   Unknown
5:56 AM - - - N/A% 29.89 in - North - - N/A   Unknown
6:56 AM - - - N/A% 29.91 in - North - - N/A   Unknown
7:56 AM - - - N/A% 29.93 in - North - - N/A   Unknown
8:56 AM - - - N/A% 29.95 in - North - - N/A   Unknown
9:56 AM - - - N/A% 29.95 in - North - - N/A   Unknown
10:56 AM - - - N/A% 29.95 in - North - - N/A   Unknown
11:56 AM 80.1 °F 83.6 °F 71.1 °F 74% 29.93 in 10.0 mi SSE 11.5 mph 18.4 mph N/A   Clear
12:56 PM 80.1 °F 83.6 °F 71.1 °F 74% 29.90 in 9.0 mi South 12.7 mph 19.6 mph N/A   Clear
1:56 PM 81.0 °F 84.9 °F 71.1 °F 72% 29.88 in 10.0 mi SSE 11.5 mph - N/A   Clear
2:56 PM 79.0 °F - 71.1 °F 77% 29.86 in 10.0 mi South 11.5 mph - N/A   Mostly Cloudy
3:56 PM 78.1 °F - 71.1 °F 79% 29.86 in 10.0 mi South 10.4 mph - N/A   Mostly Cloudy
4:10 PM 78.8 °F - 71.6 °F 78% 29.85 in 10.0 mi South 9.2 mph - N/A   Mostly Cloudy
4:56 PM 78.1 °F - 71.1 °F 79% 29.86 in 10.0 mi South 9.2 mph - N/A   Mostly Cloudy
5:56 PM 77.0 °F - 71.1 °F 82% 29.86 in 10.0 mi South 6.9 mph - N/A   Overcast
6:21 PM 73.4 °F - 69.8 °F 88% 29.86 in 6.0 mi West 15.0 mph 25.3 mph 0.00 in Rain Light Rain
6:56 PM 73.0 °F - 68.0 °F 84% 29.87 in 10.0 mi West 8.1 mph - 0.00 in   Overcast
7:56 PM 73.0 °F - 68.0 °F 84% 29.88 in 10.0 mi North 6.9 mph - N/A   Overcast
8:56 PM 72.0 °F - 68.0 °F 87% 29.91 in 10.0 mi North 4.6 mph - N/A   Overcast
9:56 PM 73.9 °F - 64.0 °F 71% 29.92 in 10.0 mi North 3.5 mph - N/A   Overcast
10:56 PM 73.9 °F - 66.0 °F 76% 29.94 in 10.0 mi NW 10.4 mph - 0.00 in   Overcast
11:18 PM 71.6 °F - 66.2 °F 83% 29.94 in 6.0 mi NW 9.2 mph - 0.00 in Rain Light Rain
11:25 PM 71.6 °F - 69.8 °F 94% 29.94 in 6.2 mi NNW 6.9 mph - 0.00 in Rain Light Rain
11:56 PM 70.0 °F - 68.0 °F 93% 29.95 in 7.0 mi NNE 5.8 mph - 0.00 in Rain Light Rain